Погода в Рябцеве

Россия / Калужская область     54°51′14″N   36°11′51″E
темп.,
°C
ветер,
м/с
пор.,
м/с
влажн.,
%
обл.,
%
осадки,
мм/ч
давл.,
гПа
погр.,
м
31 июля, сб
сб3100:00+18зюз358459 0.0 1006100
03:00+15зюз39880 0.0 1006202
06:00+15юз39892 0.0 1006197
09:00+20зюз59710 0.1 1006549
12:00+25зюз7104740 0.0 10062302
15:00+26з79381 0.0 10062240
18:00+24з584799 0.0 10081010
21:00+18юз346698 0.0 100949
1 августа, вс
вс100:00+16юз227729 0.0 101029
03:00+15юз22795 0.0 101131
06:00+16ююз237828 0.0 101169
09:00+23ю47578 0.0 1011422
12:00+28юз6104887 0.1 10101374
15:00+30юз6104070 0.1 10092923
18:00+21зюз138144 0.3 1009138
21:00+19вюв119053 0.3 101011
2 августа, пн
пн200:00+19в118946 0.1 101011
03:00+18вюв2493100 1.1 100984
06:00+18в239490 0.8 100883
09:00+22ю46775 0.9 1008516
12:00+27ююз565598 0.0 10061241
15:00+30ююз6843100 0.0 10041908
18:00+28ююз485316 0.0 1003636
21:00+21ю3683100 1.4 1002102
3 августа, вт
вт300:00+18ююз3796100 4.7 1004200
03:00+17з499766 4.7 1004478
06:00+15з479399 0.1 1007550
09:00+17з458371 0.1 1008595
12:00+17з4678100 0.0 1010599
15:00+17з468143 0.0 1010432
18:00+21з366139 0.1 10101083
21:00+16зюз36845 0.7 1011118
4 августа, ср
ср400:00+14зюз368994 0.0 1012106
03:00+15юз2588100 0.0 1013106
06:00+15зюз2587100 0.0 1013131
09:00+19з34682 0.0 1015531
12:00+23зюз454910 0.0 10151847
15:00+22з335094 0.1 10151277
18:00+20зюз226498 0.0 101542
21:00+17ссв237695 0.1 101753